This is the latest recevied weather packets stored in our database for station/object KI5MKI. If no packets are shown the sender has not sent any weather packets the latest 1 day(s).
| Time | Temp. | Humidity | Pressure | Rain* | Wind** | Luminosity | Snow |
|---|---|---|---|---|---|---|---|
| 1836274719 | 23.33° C | 78% | 1017.2 hPa | 0 mm | 0 m/s | 0 W/m² | - |
| 1836274571 | 23.89° C | 76% | 1016.9 hPa | 0 mm | 0.45 m/s, 85° | 0 W/m² | - |
| 1836274417 | 23.33° C | 78% | 1017.1 hPa | 0 mm | 0.89 m/s, 113° | 0 W/m² | - |
| 1836274270 | 23.89° C | 77% | 1017.1 hPa | 0 mm | 0.89 m/s, 132° | 0 W/m² | - |
| 1836274115 | 23.89° C | 77% | 1017 hPa | 0 mm | 0 m/s | 0 W/m² | - |
| 1778056232 | 13.89° C | 77% | 1010.1 hPa | 0 mm | 0.89 m/s, 348° | 0 W/m² | - |
| 1778055929 | 13.89° C | 77% | 1010 hPa | 0 mm | 0.45 m/s, 58° | 0 W/m² | - |
| 1778055624 | 13.89° C | 77% | 1010 hPa | 0 mm | 0.89 m/s, 282° | 0 W/m² | - |
| 1778055323 | 13.89° C | 77% | 1010 hPa | 0 mm | 0.45 m/s, 320° | 0 W/m² | - |
| 1778055020 | 13.89° C | 77% | 1010.1 hPa | 0 mm | 1.34 m/s, 291° | 0 W/m² | - |
| 1778054717 | 13.89° C | 77% | 1010.3 hPa | 0 mm | 0.89 m/s, 61° | 0 W/m² | - |
| 1778054414 | 13.89° C | 77% | 1010.3 hPa | 0 mm | 1.79 m/s, 288° | 0 W/m² | - |
| 1778054112 | 13.89° C | 77% | 1010.1 hPa | 0 mm | 1.34 m/s, 93° | 0 W/m² | - |
| 1778053808 | 13.89° C | 77% | 1010.3 hPa | 0 mm | 0.89 m/s, 55° | 0 W/m² | - |
| 1778053506 | 13.89° C | 77% | 1010.3 hPa | 0 mm | 1.34 m/s, 352° | 0 W/m² | - |
| 1778053203 | 13.89° C | 77% | 1010 hPa | 0 mm | 2.68 m/s, 0° | 0 W/m² | - |
| 1778052901 | 13.89° C | 78% | 1010.1 hPa | 0 mm | 0 m/s | 0 W/m² | - |
| 1778052598 | 13.89° C | 78% | 1010.4 hPa | 0 mm | 1.34 m/s, 323° | 0 W/m² | - |
| 1778052295 | 14.44° C | 77% | 1010 hPa | 0 mm | 1.34 m/s, 332° | 0 W/m² | - |
| 1778051993 | 14.44° C | 77% | 1010.3 hPa | 0 mm | 0.89 m/s, 32° | 0 W/m² | - |
| 1778051691 | 14.44° C | 77% | 1010.2 hPa | 0 mm | 0.89 m/s, 78° | 0 W/m² | - |
| 1778051387 | 14.44° C | 77% | 1010.1 hPa | 0 mm | 1.34 m/s, 51° | 0 W/m² | - |
| 1778051084 | 14.44° C | 77% | 1010.2 hPa | 0 mm | 1.34 m/s, 42° | 0 W/m² | - |
| 1778050781 | 14.44° C | 77% | 1010.1 hPa | 0 mm | 1.34 m/s, 352° | 0 W/m² | - |
| 1778050479 | 14.44° C | 77% | 1010.2 hPa | 0 mm | 1.79 m/s, 255° | 0 W/m² | - |
* Rain latest hour (hover to see other rain measurements)
** Current wind speed in m/s (hover to see current wind gust speed)